カタログに戻る

USA 464

運用中軍事VLEO
NORAD 62533·PAYLOAD·🇺🇸 United States

打ち上げ Jan 10, 2025 から Vandenberg Space Force Base

Loading…

次のパス (今後24時間)

TLE

古いSource: Mike McCants

元期: Aug 25, 2026, 01:41 UTC

1 62533U 25005B   26237.07047296 0.00000000  00000-0  00000-0 0    09
2 62533  70.0154 228.9580 0002000 151.8741 208.1258 14.96713568    07

AllMySatでUSA 464をリアルタイム追跡

Download on the App Store